Location: Austin
(30.3000°N, 97.7500°W)
Time: 11:34:18
(UTC-05:00)

Meteor 1-19 Rocket - Pass Details

Date: 26 May 2023
Orbit: 811 x 923 km, 81.2° (Epoch: 30 May)

Event Time Altitude Azimuth Distance (km) Brightness Sun altitude
Exits shadow 22:17:17 42° 129° (SE) 1,192 4.5 -21.0°
Maximum altitude 22:18:26 49° 94° (E) 1,087 4.4 -21.2°
Drops below altitude 10° 22:23:44 10° 21° (NNE) 2,445 6.9 -22.0°
Sets 22:26:11 0° 16° (NNE) 3,368 7.7 -22.4°
